Flag for Germany Weather past 2 weeks in Radolfzell am Bodensee, Baden-Württemberg, Germany

Now
33 °F

Passing clouds.


Feels Like: 33 °F
Forecast: 33 / 45 °F
Wind: 2 mph from East

Location: Konstanz

Current Time: Mar 1, 2015 at 5:33:22 AM

Latest Report: Mar 1, 2015 at 5:00 AM


Visibility: 5 mi

Pressure: 30.00 "Hg

Humidity: 95%

Dew point: 31 °F

Location of Radolfzell am BodenseeLocation

Historic Weather in Radolfzell am Bodensee — Graph

°F

Radolfzell am Bodensee temperature yesterday

Maximum temperature yesterday: 45 °F (at 2:00 PM)
Minimum temperature yesterday: 34 °F (at 11:00 PM)
Average temperature yesterday: 38 °F

Past Weeks' High & Low Weather Summary

 TemperatureHumidityPressure
High47 °F (Feb 20, 4:00 PM)100% (Feb 14, 4:00 AM)30.77 "Hg (Feb 14, 4:00 AM)
Low26 °F (Feb 20, 8:00 AM)40% (Feb 20, 5:00 PM)29.55 "Hg (Feb 21, 1:00 PM)
Average34 °F86%30.09 "Hg
* Reported Feb 14 4:00 AM — Mar 1 4:00 AM, Radolfzell am Bodensee, Weather by CustomWeather, © 2015

Note: Actual official high and low records may vary slightly from our data, if they occured in-between our weather recording intervals... More about our weather records

Advertising

Radolfzell am Bodensee weather history for previous 24 hours

 ConditionsComfort  
Time TempWeatherWind HumidityBarometerVisibility
4:00 AM
Sun, Mar 1
32 °FFog.1 mph95%30.00 "Hg4 mi
3:00 AM32 °FFog.1 mph96%30.02 "Hg4 mi
2:00 AM31 °FFog.1 mph96%30.04 "Hg3 mi
1:00 AM33 °FClear.1 mph94%30.06 "Hg6 mi
12:00 AM32 °FClear.1 mph95%30.08 "Hg6 mi
11:00 PM
Sat, Feb 28
34 °FClear.1 mph91%30.09 "Hg9 mi
10:00 PM34 °FClear.1 mph91%30.12 "Hg7 mi
9:00 PM37 °FPassing clouds.2 mph84%30.12 "Hg16 mi
8:00 PM38 °FOvercast.1 mph77%30.11 "Hg16 mi
7:00 PM37 °FPassing clouds.2 mph77%30.12 "Hg17 mi
6:00 PM41 °FPartly sunny.1 mph66%30.11 "Hg25 mi
5:00 PM42 °FPartly sunny.2 mph64%30.10 "Hg22 mi
4:00 PM43 °FPartly sunny.1 mph59%30.12 "Hg22 mi
3:00 PM44 °FScattered clouds.2 mph55%30.11 "Hg16 mi
2:00 PM45 °FScattered clouds.2 mph62%30.13 "Hg16 mi
1:00 PM42 °FPassing clouds.2 mph69%30.16 "Hg17 mi
12:00 PM39 °FPartly sunny.1 mph78%30.19 "Hg14 mi
11:00 AM39 °FOvercast.2 mph79%30.20 "Hg11 mi
10:00 AM38 °FOvercast.1 mph86%30.22 "Hg6 mi
9:00 AM35 °FLight rain. Overcast.1 mph95%30.22 "Hg4 mi
8:00 AM35 °FOvercast.1 mph97%30.22 "Hg4 mi
7:00 AM35 °FLight rain. Low clouds.1 mph97%30.21 "Hg2 mi
6:00 AM35 °FLow clouds.1 mph97%30.20 "Hg3 mi
5:00 AM35 °FOvercast.1 mph97%30.19 "Hg3 mi
Weather by CustomWeather, © 2015

See weather overviewHow to use our weather pages